Theta_e
315 315 316 316 316 316 316 316 316 316 316 316 315 315 315 315 313 308 301 307 309 315 316 311 308 306 308 306 313 312 303 299 302 303 305 311 308 313 315 313 317 320 321 325 329
316 316 316 316 316 316 316 316 316 316 316 315 315 315 315 314 304 299 311 315 314 313 309 306 302 303 300 304 308 304 299 298 306 307 306 309 309 310 310 310 312 319 323 327 329
317 316 316 315 315 315 315 316 316 316 316 315 315 315 314 312 299 298 312 314 312 311 308 308 305 300 296 303 304 304 296 301 305 305 302 303 307 311 308 306 311 311 315 323 326
315 315 315 315 315 315 315 315 316 316 315 315 314 315 313 303 287 301 311 312 309 308 306 305 302 296 293 292 298 293 301 300 301 300 299 299 303 303 307 309 314 315 316 318 323
315 314 314 314 315 315 314 315 315 315 315 314 315 314 303 297 295 305 308 307 305 305 301 301 298 297 291 294 295 293 294 297 298 297 296 296 294 296 300 308 313 314 315 314 318
315 314 313 313 314 314 314 314 315 315 314 313 314 311 299 291 304 305 304 304 303 302 300 301 298 300 297 295 294 297 296 295 295 294 296 294 295 297 297 299 302 310 312 314 316
314 314 314 313 313 313 314 314 315 314 313 314 313 306 298 294 304 305 304 303 303 302 298 302 303 297 297 291 298 295 291 292 294 293 291 294 287 291 299 301 300 302 305 307 311
315 313 313 313 313 313 314 314 313 313 313 313 310 302 293 302 305 302 304 302 305 304 303 304 305 300 297 299 293 289 290 284 290 291 291 290 283 291 298 296 293 294 295 298 302
315 313 313 313 313 314 313 312 310 312 311 311 303 300 290 303 298 301 303 300 302 303 303 304 302 297 296 289 286 286 281 282 284 290 289 288 284 290 294 292 292 293 294 296 297
314 314 313 312 313 313 312 308 304 304 302 303 299 291 294 292 297 300 302 301 298 297 295 296 296 291 290 286 279 279 281 282 282 286 288 286 285 289 292 292 292 293 294 295 296
315 314 313 312 311 309 304 300 294 293 298 292 291 290 292 298 300 297 300 298 296 293 287 291 287 283 284 285 285 284 283 282 285 288 286 285 285 288 291 292 291 292 294 296 296
314 314 313 312 308 305 303 295 295 296 287 294 294 293 295 298 290 294 301 293 291 286 289 286 283 286 287 287 285 284 282 282 285 287 286 285 285 288 291 291 292 292 293 294 297
314 313 313 311 306 304 301 299 303 300 288 290 293 293 294 296 289 291 296 293 289 286 285 283 284 287 286 285 283 284 282 282 282 286 287 286 284 286 289 292 293 294 295 296 296
313 313 313 309 302 300 298 302 301 296 285 283 287 291 292 292 288 294 296 293 289 284 286 284 287 285 284 283 284 280 285 284 283 282 278 286 274 283 287 288 291 293 295 297 299
313 313 312 307 301 298 300 302 298 293 281 283 286 295 292 289 288 290 294 292 285 284 285 283 283 283 282 283 285 283 287 285 284 282 280 281 277 281 288 286 289 292 296 298 300
313 311 307 302 302 300 301 296 294 288 278 281 285 285 286 288 287 289 289 293 290 286 286 285 289 286 286 287 287 288 285 284 284 281 274 280 279 279 283 286 289 293 297 297 298
312 309 302 300 297 301 298 293 285 283 280 280 281 284 283 283 284 284 284 284 283 279 279 283 283 286 288 284 287 285 282 276 274 274 273 281 279 281 286 289 292 294 295 296 297
308 304 299 299 300 297 294 289 280 276 278 281 282 282 281 282 281 281 281 281 285 283 280 277 276 282 286 285 281 282 281 275 269 271 274 281 276 281 289 291 295 296 296 295 297
304 298 298 298 299 296 291 283 283 279 281 281 280 278 279 280 279 280 279 280 283 285 277 277 277 284 284 286 284 281 279 284 277 278 274 278 282 286 289 289 291 293 293 293 296
298 296 295 297 296 294 288 283 280 281 283 281 280 279 277 278 278 277 277 282 283 286 286 280 274 281 283 285 286 283 285 278 279 269 268 275 277 278 284 286 289 289 291 293 294
295 291 294 296 295 290 283 282 279 283 285 281 280 278 279 278 278 276 276 281 284 285 286 283 278 279 282 281 280 281 280 282 281 278 271 270 275 286 285 287 287 289 291 291 291
292 286 294 294 286 278 281 278 282 283 285 283 281 281 280 280 278 276 276 278 285 286 281 283 278 274 278 284 284 283 281 281 275 272 275 274 274 287 290 289 288 289 288 290 290
288 287 293 291 282 280 277 280 283 282 283 282 281 283 281 280 276 277 276 282 285 284 282 283 277 272 277 281 283 282 282 282 280 278 273 270 275 288 288 288 289 287 286 288 289
288 282 286 289 285 282 278 279 279 284 283 284 282 283 280 279 280 276 277 281 284 283 285 285 278 275 273 276 279 276 278 280 278 272 274 276 278 283 285 286 288 285 286 287 287
289 285 287 280 282 281 282 280 278 278 283 284 281 282 280 276 277 275 278 280 283 285 285 283 275 276 277 278 278 277 276 277 276 277 273 277 278 282 285 287 285 286 286 286 286
283 283 284 283 284 282 281 278 278 279 281 280 280 282 282 277 280 275 279 279 279 283 282 281 274 273 271 275 275 274 277 277 278 278 278 279 279 287 288 288 287 285 285 285 285
291 289 288 283 281 282 282 280 280 282 283 284 283 282 280 282 284 282 284 284 283 281 279 279 276 273 269 271 270 269 273 278 280 281 281 278 283 286 285 284 285 284 285 285 285
Wind_Speed
5 6 7 8 9 10 10 11 11 12 13 14 15 14 15 12 6 13 15 11 14 15 9 9 4 4 3 3 2 2 9 14 20 19 19 15 12 7 4 9 6 5 8 4 3
4 4 5 6 8 8 8 9 10 11 13 14 15 16 15 7 2 14 9 15 16 14 7 10 9 6 4 4 4 9 11 14 12 14 15 16 19 17 17 17 14 11 9 4 9
5 5 6 5 6 7 9 9 9 10 12 13 15 16 15 3 2 6 14 17 13 9 4 5 5 2 2 1 1 1 11 8 7 6 9 10 14 11 14 19 17 18 18 6 10
5 7 8 7 7 7 7 8 8 10 11 13 14 14 11 2 1 4 15 14 9 7 5 6 3 2 1 1 3 6 3 3 7 9 9 12 12 14 19 21 19 18 17 11 14
7 7 7 8 7 7 7 8 8 9 10 12 14 15 1 5 4 5 12 8 4 4 7 4 8 2 2 2 5 6 5 9 10 15 15 17 20 23 22 20 17 19 20 18 17
8 8 7 8 8 8 8 9 9 9 9 10 10 8 0 4 4 6 8 2 7 5 5 5 4 3 2 1 4 4 10 14 12 13 10 13 14 13 15 19 20 17 20 23 23
7 7 7 8 8 8 8 9 10 10 10 10 9 4 6 5 4 8 8 3 4 3 4 4 3 3 4 3 3 7 10 11 1 6 11 14 14 10 5 8 8 11 14 20 24
7 8 7 8 8 8 8 8 10 11 10 7 6 3 4 2 4 7 10 3 5 3 3 3 2 1 3 5 4 5 2 5 2 12 4 12 14 9 12 15 23 28 23 20 21
9 7 7 6 7 8 7 8 8 5 4 4 2 4 3 4 4 6 5 7 8 3 5 3 0 3 0 5 3 3 7 12 10 7 12 7 19 13 19 25 24 23 23 22 23
6 6 5 3 5 8 10 4 4 1 3 1 2 2 4 6 5 6 4 4 3 6 2 4 2 1 1 5 5 11 10 9 16 7 19 22 27 23 22 24 26 26 25 25 24
5 5 3 2 4 6 4 1 3 3 6 4 2 2 1 7 2 4 5 3 3 4 5 4 2 3 4 4 6 8 13 18 20 20 20 17 25 26 24 25 28 27 25 25 26
5 4 3 3 4 4 2 2 3 4 3 2 2 1 1 1 2 7 8 5 5 5 7 3 1 1 5 5 4 9 14 16 14 10 15 22 28 27 23 27 25 25 26 25 25
6 4 6 5 2 3 4 3 2 4 4 3 3 3 3 3 2 4 7 3 5 5 6 5 2 2 5 9 9 11 11 12 19 17 17 22 23 18 23 26 24 21 22 23 24
5 6 7 7 2 1 2 2 2 4 4 3 0 2 3 1 3 1 3 2 1 6 8 6 0 4 9 11 4 7 4 11 18 16 11 11 20 15 19 19 21 18 11 12 16
7 8 8 3 5 2 3 3 3 4 2 3 1 4 5 3 3 4 3 1 0 3 4 3 4 6 10 2 3 8 12 17 20 17 15 10 8 14 26 21 17 13 11 12 15
9 10 12 4 3 2 4 2 3 2 3 4 0 2 4 2 1 5 2 4 2 1 3 10 4 4 3 7 8 12 11 21 9 4 6 7 6 17 22 12 23 12 14 17 20
14 12 2 1 3 7 3 1 2 3 2 3 2 2 3 3 1 5 3 4 3 3 5 10 2 3 4 6 1 2 12 7 4 4 12 15 14 21 27 20 13 15 18 21 21
17 10 4 2 4 5 1 2 4 1 5 2 2 1 3 4 2 4 2 3 2 2 1 5 4 2 3 3 6 13 4 4 9 14 21 17 12 13 19 21 14 16 21 23 24
18 2 3 2 4 1 2 1 5 5 6 8 3 3 3 3 3 3 0 2 2 1 2 4 6 3 6 9 3 3 5 8 8 15 12 10 22 23 21 15 18 19 23 26 24
6 4 2 1 3 1 3 5 3 2 5 5 5 2 5 4 3 1 1 4 5 3 1 3 8 3 6 3 7 8 5 4 4 10 17 14 26 14 19 20 19 23 27 26 27
3 4 3 0 1 3 4 6 4 4 3 5 5 5 4 4 3 3 1 2 4 6 2 4 2 3 6 7 3 4 4 6 5 7 10 15 15 6 18 16 22 28 26 27 28
3 3 2 1 3 0 5 7 5 6 3 3 3 3 7 8 5 4 4 4 3 7 4 5 3 7 10 13 7 8 6 6 6 9 15 15 27 23 14 23 27 27 24 26 24
5 3 2 2 6 5 1 2 4 6 7 8 7 5 3 7 3 5 5 3 6 6 6 7 3 7 6 3 5 4 6 9 11 10 20 14 16 10 27 28 26 27 26 24 24
6 5 2 3 1 6 7 5 6 4 4 5 5 5 4 6 5 4 5 3 8 5 6 5 4 9 9 14 15 18 16 16 14 8 15 18 28 30 28 29 28 26 22 24 20
4 5 7 9 10 6 8 8 7 8 4 7 5 10 9 6 5 5 6 4 7 7 5 4 7 9 16 23 24 25 26 24 17 22 14 28 26 29 29 27 25 19 22 22 16
8 6 3 4 9 16 11 11 13 6 13 7 8 14 13 7 10 10 10 6 5 7 7 5 4 5 9 11 10 18 23 23 22 21 22 26 30 21 25 24 18 15 22 20 16
2 2 3 9 6 12 11 10 16 12 11 4 17 7 15 18 9 3 6 3 5 9 10 6 3 3 9 7 13 8 10 10 10 13 13 12 19 23 24 25 19 14 22 19 18
Wind_Direction
7 1 354 353 353 354 356 0 2 2 0 358 358 357 351 346 342 53 43 359 343 338 324 330 342 3 207 219 213 228 245 248 251 258 268 262 253 237 262 272 252 256 265 328 114
300 307 332 350 345 341 339 348 354 356 356 355 352 350 350 348 75 57 354 347 341 343 336 360 1 347 150 174 186 228 243 262 272 288 278 290 278 285 278 266 258 245 246 239 162
354 352 344 343 342 343 342 345 350 354 353 350 349 344 342 335 130 18 342 341 346 339 321 346 333 350 114 247 67 234 256 309 254 341 335 298 285 277 277 263 264 272 276 206 198
348 338 331 330 331 333 336 339 344 350 352 348 345 343 332 196 51 354 338 345 356 3 18 16 11 42 57 204 15 274 260 343 314 325 312 296 303 278 276 274 287 283 283 255 216
342 334 330 328 328 333 336 340 342 347 349 347 344 342 314 72 51 335 330 344 7 359 34 40 42 28 31 345 317 254 301 310 304 298 288 289 274 273 268 278 272 276 271 261 250
329 325 329 333 335 341 339 336 333 340 342 343 347 331 146 88 328 325 336 344 20 9 40 35 42 10 74 359 298 322 292 294 293 298 292 280 291 287 275 279 271 271 276 275 263
317 320 319 326 324 331 335 333 330 332 334 340 358 6 65 78 335 340 359 346 345 347 17 46 6 343 331 310 324 282 292 298 72 344 309 334 281 245 29 3 316 309 313 296 277
311 308 310 314 323 325 327 329 328 321 320 332 10 344 68 357 339 8 351 356 8 13 338 1 21 41 342 303 274 292 265 340 348 319 336 334 289 298 329 314 309 304 294 285 285
311 289 299 301 322 317 315 324 344 343 1 6 348 359 74 333 11 345 353 339 324 4 38 108 197 42 355 329 293 30 320 318 321 295 310 304 302 308 300 296 294 291 288 286 281
316 312 314 334 319 306 304 310 42 20 19 102 109 164 32 344 319 327 337 333 345 326 145 33 31 12 47 360 333 316 315 296 295 311 306 301 287 291 296 289 283 282 280 274 267
286 314 302 323 328 336 312 233 171 125 40 23 84 95 294 320 264 356 346 328 351 53 7 22 317 20 11 353 310 294 284 288 293 297 299 286 289 293 289 286 279 277 275 276 271
296 286 196 144 30 56 358 43 56 120 100 0 327 316 244 327 325 15 356 16 18 18 339 276 49 83 321 304 283 284 289 288 286 283 300 295 294 294 288 276 278 279 277 272 276
273 235 169 166 113 41 75 106 182 188 94 75 347 339 340 347 54 1 9 356 8 350 353 298 7 254 288 307 300 289 277 289 293 311 286 289 285 301 299 291 286 283 278 278 278
248 215 171 144 196 117 81 161 215 236 87 93 111 318 273 317 115 324 36 54 17 328 330 274 355 281 295 293 277 301 335 302 299 313 306 338 296 308 292 302 295 298 308 296 297
216 184 168 182 123 179 123 159 236 262 15 122 113 352 319 333 339 59 28 110 341 312 300 1 286 311 301 292 221 283 319 298 293 289 303 284 245 301 299 304 306 318 308 306 302
174 148 132 115 110 115 147 140 272 325 232 153 132 12 281 345 34 331 43 61 47 275 242 263 313 271 273 285 248 295 300 298 290 263 239 272 254 292 296 309 307 311 303 306 308
149 142 113 125 157 147 147 233 12 215 36 168 122 61 309 319 61 12 33 47 53 337 9 310 230 230 233 292 218 247 331 317 296 274 286 305 293 263 285 300 279 297 296 307 311
135 121 47 38 119 131 159 29 204 55 208 69 86 64 263 318 49 347 130 125 156 50 58 324 308 269 162 270 297 309 274 304 301 313 301 303 250 264 300 305 274 276 292 312 310
128 84 104 150 135 118 139 159 214 194 154 138 127 153 211 236 278 283 186 183 140 199 359 292 260 290 247 274 229 94 239 316 269 267 273 266 273 287 277 291 283 301 309 304 309
133 128 139 284 122 115 91 244 212 187 138 107 199 172 205 210 269 342 200 157 162 174 272 169 289 244 306 303 237 232 353 269 265 300 300 288 291 278 303 305 314 309 313 319 310
99 132 122 198 231 78 208 221 206 200 160 149 187 165 213 203 206 217 190 178 206 159 170 159 209 301 303 211 248 218 249 218 285 264 292 306 299 302 313 308 311 314 317 318 310
147 151 78 223 134 281 196 184 167 166 155 138 132 172 192 178 182 232 246 248 198 156 184 177 177 273 267 293 287 242 254 239 274 288 274 285 275 287 284 323 311 316 326 315 313
108 101 76 264 194 213 316 213 220 151 181 166 190 216 175 186 214 216 206 237 196 181 180 159 185 294 294 152 147 227 216 244 281 282 264 265 275 281 316 311 320 324 321 317 313
124 142 144 222 258 172 155 200 203 208 169 156 148 142 152 199 208 176 223 237 196 196 193 149 218 229 258 284 311 290 277 278 277 259 281 256 282 297 310 315 326 324 313 318 316
156 181 177 181 214 193 188 151 160 170 213 186 179 206 177 183 192 219 225 237 198 202 192 166 267 259 261 275 281 279 281 283 263 249 257 284 292 297 306 320 323 313 320 325 332
143 157 163 145 148 175 184 205 177 174 159 206 224 197 193 186 188 186 178 215 192 175 173 156 271 306 281 267 280 279 271 267 267 264 254 267 282 299 318 315 331 329 326 333 341
146 74 143 152 152 168 207 186 196 152 204 183 208 156 203 230 216 104 168 167 167 173 183 182 233 323 272 322 306 270 240 220 264 268 263 274 300 317 319 323 339 336 336 341 338